Selinsgrove, PA

11:11 AM EDT on May 23, 2017 (GMT -0400)
Penn Valley

Weather History for KSEG - September, 2013

Change the Weather History Date:

Sunday, September 8, 2013

  Actual Average (KIPT) Record (KIPT)
Temperature  
Mean Temperature 66 °F -  
Max Temperature 79 °F 76 °F 94 °F (2016)
Min Temperature 51 °F 55 °F 41 °F (1962)
Cooling Degree Days 1    
Growing Degree Days 16 (Base 50)    
Moisture  
Dew Point 58 °F    
Average Humidity 78    
Maximum Humidity 100    
Minimum Humidity 46    
Precipitation  
Precipitation 0.07 in - - ()
Sea Level Pressure  
Sea Level Pressure 29.95 in    
Wind  
Wind Speed 2 mph (NNE)    
Max Wind Speed 13 mph    
Max Gust Speed 18 mph    
Visibility 6 miles    
Events Rain    
Averages and records for this station are not official NWS values.
T = Trace of Precipitation, MM = Missing Value Source: NWS Daily Summary

Daily Weather History Graph

Daily Weather History Graph

Search for Another Location

Airport or City:

Trip Planner

Search our weather history database for the weather conditions in past years. The results will help you decide how hot, cold, wet, or windy it might be!

Date:

Astronomy

Sep. 08, 2013 Rise Set
Actual Time 6:41 AM EDT 7:27 PM EDT
Civil Twilight 6:13 AM EDT 7:55 PM EDT
Nautical Twilight 5:40 AM EDT 8:28 PM EDT
Astronomical Twilight 5:06 AM EDT 9:02 PM EDT
Moon 9:58 AM EDT (9/8) 9:00 PM EDT (9/8)
Length of Visible Light 13h 41m
Length of Day
12h 46m
Waxing Crescent, 11% of the Moon is Illuminated
Sep 8
Waxing Crescent
Sep 12
First Quarter
Sep 19
Full
Sep 26
Last Quarter
Oct 4
New

Hourly Weather History & Observations

Time (EDT) Temp. Dew Point Humidity Pressure Visibility Wind Dir Wind Speed Gust Speed Precip Events Conditions
12:53 AM 62.1 °F 60.1 °F 93% 29.94 in 5.0 mi Calm Calm - 0.05 in Rain Light Rain
1:53 AM 62.1 °F 60.1 °F 93% 29.93 in 5.0 mi Calm Calm - 0.01 in Rain Light Rain
2:53 AM 62.1 °F 60.1 °F 93% 29.91 in 3.0 mi Calm Calm - 0.00 in   Mostly Cloudy
3:04 AM 60.8 °F 59.0 °F 94% 29.91 in 2.5 mi Calm Calm - N/A   Scattered Clouds
3:21 AM 60.8 °F 57.2 °F 88% 29.91 in 1.5 mi Calm Calm - N/A   Clear
3:29 AM 60.8 °F 57.2 °F 88% 29.91 in 1.5 mi Calm Calm - N/A   Partly Cloudy
3:53 AM 61.0 °F 60.1 °F 97% 29.91 in 2.0 mi Calm Calm - N/A   Overcast
4:07 AM 60.8 °F 60.8 °F 100% 29.91 in 3.0 mi Calm Calm - N/A   Overcast
4:53 AM 61.0 °F 60.1 °F 97% 29.89 in 4.0 mi Calm Calm - N/A   Overcast
5:53 AM 61.0 °F 59.0 °F 93% 29.89 in 5.0 mi Calm Calm - N/A   Scattered Clouds
6:53 AM 61.0 °F 60.1 °F 97% 29.90 in 3.0 mi Calm Calm - 0.01 in   Overcast
7:27 AM 62.6 °F 60.8 °F 94% 29.91 in 2.5 mi Calm Calm - N/A   Overcast
7:38 AM 62.6 °F 60.8 °F 94% 29.91 in 3.0 mi Calm Calm - N/A   Overcast
7:53 AM 62.1 °F 61.0 °F 96% 29.91 in 2.5 mi Calm Calm - N/A   Overcast
8:07 AM 62.6 °F 60.8 °F 94% 29.91 in 3.0 mi Calm Calm - N/A   Mostly Cloudy
8:53 AM 66.0 °F 61.0 °F 84% 29.91 in 6.0 mi Calm Calm - N/A   Haze
9:53 AM 69.1 °F 62.1 °F 78% 29.91 in 8.0 mi Calm Calm - N/A   Mostly Cloudy
10:15 AM 69.8 °F 62.6 °F 78% 29.92 in 8.0 mi SE 3.5 mph - N/A   Overcast
10:53 AM 73.0 °F 64.0 °F 73% 29.93 in 9.0 mi Calm Calm - N/A   Overcast
11:53 AM 73.9 °F 63.0 °F 68% 29.93 in 10.0 mi NNE 5.8 mph - N/A   Overcast
12:53 PM 79.0 °F 63.0 °F 58% 29.92 in 10.0 mi NNW 10.4 mph - N/A   Mostly Cloudy
1:53 PM 75.0 °F 60.1 °F 60% 29.94 in 10.0 mi North 11.5 mph 18.4 mph N/A   Overcast
2:53 PM 75.9 °F 59.0 °F 56% 29.95 in 10.0 mi North 12.7 mph 18.4 mph N/A   Overcast
3:53 PM 77.0 °F 57.0 °F 50% 29.96 in 10.0 mi NNE 10.4 mph 18.4 mph N/A   Clear
4:53 PM 75.9 °F 55.0 °F 48% 29.96 in 10.0 mi North 10.4 mph - N/A   Clear
5:53 PM 73.9 °F 52.0 °F 46% 29.97 in 10.0 mi North 6.9 mph 16.1 mph N/A   Clear
6:53 PM 70.0 °F 50.0 °F 49% 30.00 in 10.0 mi North 6.9 mph - N/A   Clear
7:53 PM 66.0 °F 50.0 °F 56% 30.03 in 10.0 mi NE 5.8 mph - N/A   Clear
8:53 PM 61.0 °F 51.1 °F 70% 30.06 in 10.0 mi NE 4.6 mph - N/A   Unknown
9:53 PM 62.1 °F 43.0 °F 50% 30.08 in 10.0 mi North 8.1 mph - N/A   Clear
10:53 PM 53.1 °F 46.9 °F 80% 30.10 in 10.0 mi Calm Calm - N/A   Clear
11:53 PM 51.1 °F 46.9 °F 86% 30.13 in 10.0 mi Calm Calm - N/A   Clear